• In Hungary
  • List of Countries
  • For 7 days
  • Water Temperature
  • Satellite Maps
  • Weather Map
  • News
  • Weather Widgets
  • user-avatar
    Login

    Hourly Weather Tskhaltubo

    Today, 16 November, Friday

    Time Temperature Precipitation Wind Pressure Humidity
    00:00 +8°C° 0 mm 2 mps 746 mmHg 78%
    01:00 +8°C° 0 mm 2 mps 746 mmHg 78%
    02:00 +9°C° 0 mm 2 mps 745 mmHg 78%
    03:00 +9°C° 0 mm 2 mps 745 mmHg 78%
    04:00 +9°C° 0 mm 2 mps 745 mmHg 78%
    05:00 +9°C° 0 mm 2 mps 746 mmHg 78%
    06:00 +9°C° 0 mm 2 mps 746 mmHg 78%
    07:00 +10°C° 0 mm 2 mps 746 mmHg 75%
    08:00 +12°C° 0 mm 1 mps 746 mmHg 73%
    09:00 +13°C° 0 mm 1 mps 745 mmHg 71%
    10:00 +14°C° 0 mm 2 mps 745 mmHg 67%
    11:00 +15°C° 0 mm 2 mps 745 mmHg 63%
    12:00 +17°C° 0 mm 2 mps 745 mmHg 59%
    13:00 +17°C° 0 mm 2 mps 745 mmHg 61%
    14:00 +16°C° 0 mm 2 mps 745 mmHg 62%
    15:00 +16°C° 0 mm 1 mps 746 mmHg 64%
    16:00 +15°C° 0.1 mm 2 mps 746 mmHg 66%
    17:00 +14°C° 0.1 mm 2 mps 746 mmHg 68%
    18:00 +13°C° 0.1 mm 2 mps 746 mmHg 70%
    19:00 +13°C° 0 mm 2 mps 746 mmHg 68%
    20:00 +12°C° 0 mm 3 mps 746 mmHg 66%
    21:00 +12°C° 0 mm 3 mps 746 mmHg 63%
    22:00 +12°C° 0.1 mm 3 mps 746 mmHg 65%
    23:00 +12°C° 0.1 mm 3 mps 747 mmHg 67%

    Tomorrow, 17 November, Saturday

    Time Temperature Precipitation Wind Pressure Humidity
    00:00 +13°C° 0.1 mm 2 mps 747 mmHg 69%
    01:00 +12°C° 2.9 mm 2 mps 747 mmHg 78%
    02:00 +12°C° 2.9 mm 2 mps 748 mmHg 87%
    03:00 +11°C° 2.9 mm 1 mps 748 mmHg 95%
    04:00 +11°C° 2.5 mm 1 mps 749 mmHg 96%
    05:00 +11°C° 2.5 mm 1 mps 749 mmHg 96%
    06:00 +11°C° 2.5 mm 1 mps 749 mmHg 96%
    07:00 +11°C° 1.4 mm 1 mps 750 mmHg 95%
    08:00 +11°C° 1.4 mm 1 mps 750 mmHg 94%
    09:00 +11°C° 1.4 mm 1 mps 751 mmHg 93%
    10:00 +11°C° 1 mm 1 mps 751 mmHg 92%
    11:00 +11°C° 1 mm 1 mps 751 mmHg 91%
    12:00 +12°C° 1 mm 1 mps 751 mmHg 89%
    13:00 +12°C° 0.6 mm 1 mps 751 mmHg 88%
    14:00 +12°C° 0.6 mm 1 mps 751 mmHg 88%
    15:00 +12°C° 0.6 mm 1 mps 751 mmHg 87%
    16:00 +11°C° 0.2 mm 1 mps 751 mmHg 89%
    17:00 +10°C° 0.2 mm 1 mps 752 mmHg 91%
    18:00 +9°C° 0.2 mm 0 mps 752 mmHg 93%
    19:00 +8°C° 0.1 mm 0 mps 752 mmHg 93%
    20:00 +8°C° 0.1 mm 0 mps 752 mmHg 92%
    21:00 +9°C° 0.1 mm 1 mps 753 mmHg 92%
    22:00 +8°C° 0 mm 1 mps 752 mmHg 91%
    23:00 +8°C° 0 mm 1 mps 752 mmHg 90%

    Day after tomorrow, 18 November, Sunday

    Time Temperature Precipitation Wind Pressure Humidity
    00:00 +8°C° 0 mm 1 mps 752 mmHg 89%
    01:00 +7°C° 0 mm 1 mps 752 mmHg 87%
    02:00 +7°C° 0 mm 1 mps 752 mmHg 85%
    03:00 +7°C° 0 mm 1 mps 752 mmHg 84%
    04:00 +6°C° 0 mm 2 mps 751 mmHg 82%
    05:00 +6°C° 0 mm 2 mps 751 mmHg 80%
    06:00 +5°C° 0 mm 2 mps 750 mmHg 78%
    07:00 +6°C° 0 mm 2 mps 750 mmHg 76%
    08:00 +8°C° 0 mm 1 mps 750 mmHg 73%
    09:00 +9°C° 0 mm 1 mps 750 mmHg 70%
    10:00 +11°C° 0 mm 1 mps 749 mmHg 67%
    11:00 +12°C° 0 mm 1 mps 748 mmHg 64%
    12:00 +13°C° 0 mm 1 mps 748 mmHg 61%
    13:00 +13°C° 0 mm 1 mps 748 mmHg 62%
    14:00 +13°C° 0 mm 1 mps 748 mmHg 64%
    15:00 +12°C° 0 mm 1 mps 748 mmHg 65%
    16:00 +12°C° 0 mm 1 mps 748 mmHg 68%
    17:00 +11°C° 0 mm 1 mps 748 mmHg 70%
    18:00 +10°C° 0 mm 1 mps 748 mmHg 73%
    19:00 +9°C° 0 mm 1 mps 748 mmHg 72%
    20:00 +9°C° 0 mm 1 mps 748 mmHg 72%
    21:00 +8°C° 0 mm 2 mps 748 mmHg 71%
    22:00 +7°C° 0 mm 2 mps 748 mmHg 70%
    23:00 +7°C° 0 mm 2 mps 748 mmHg 69%

    19 November, Monday

    Time Temperature Precipitation Wind Pressure Humidity
    00:00 +7°C° 0 mm 2 mps 748 mmHg 68%
    01:00 +7°C° 0 mm 2 mps 748 mmHg 67%
    02:00 +7°C° 0 mm 2 mps 748 mmHg 66%
    03:00 +7°C° 0 mm 2 mps 748 mmHg 65%
    04:00 +7°C° 0 mm 2 mps 748 mmHg 65%
    05:00 +7°C° 0 mm 2 mps 748 mmHg 64%
    06:00 +7°C° 0 mm 2 mps 748 mmHg 63%
    07:00 +8°C° 0 mm 2 mps 748 mmHg 61%
    08:00 +9°C° 0 mm 2 mps 748 mmHg 59%
    09:00 +10°C° 0 mm 2 mps 748 mmHg 57%
    10:00 +13°C° 0 mm 2 mps 747 mmHg 55%
    11:00 +14°C° 0 mm 2 mps 747 mmHg 53%
    12:00 +16°C° 0 mm 2 mps 746 mmHg 51%
    13:00 +16°C° 0 mm 2 mps 746 mmHg 52%
    14:00 +16°C° 0 mm 2 mps 746 mmHg 53%
    15:00 +16°C° 0 mm 2 mps 745 mmHg 55%
    16:00 +15°C° 0 mm 2 mps 746 mmHg 57%
    17:00 +14°C° 0 mm 2 mps 746 mmHg 59%
    18:00 +11°C° 0 mm 3 mps 747 mmHg 61%
    19:00 +11°C° 0 mm 3 mps 747 mmHg 61%
    20:00 +11°C° 0 mm 3 mps 747 mmHg 60%
    21:00 +11°C° 0 mm 3 mps 747 mmHg 59%
    22:00 +11°C° 0 mm 3 mps 747 mmHg 60%
    23:00 +11°C° 0 mm 3 mps 748 mmHg 61%

    20 November, Tuesday

    Time Temperature Precipitation Wind Pressure Humidity
    00:00 +11°C° 0 mm 3 mps 748 mmHg 62%
    01:00 +11°C° 0 mm 3 mps 748 mmHg 63%
    02:00 +11°C° 0 mm 3 mps 748 mmHg 64%
    03:00 +11°C° 0 mm 3 mps 748 mmHg 65%
    04:00 +12°C° 0 mm 2 mps 748 mmHg 65%
    05:00 +12°C° 0 mm 2 mps 748 mmHg 65%
    06:00 +12°C° 0 mm 2 mps 748 mmHg 65%
    07:00 +13°C° 0 mm 2 mps 748 mmHg 64%
    08:00 +13°C° 0 mm 2 mps 748 mmHg 64%
    09:00 +14°C° 0 mm 2 mps 749 mmHg 63%
    10:00 +15°C° 0 mm 2 mps 748 mmHg 61%
    11:00 +16°C° 0 mm 1 mps 748 mmHg 58%
    12:00 +19°C° 0 mm 1 mps 748 mmHg 56%
    13:00 +19°C° 0 mm 1 mps 748 mmHg 56%
    14:00 +19°C° 0 mm 1 mps 748 mmHg 57%
    15:00 +19°C° 0 mm 1 mps 748 mmHg 58%
    16:00 +16°C° 0 mm 1 mps 748 mmHg 62%
    17:00 +15°C° 0 mm 1 mps 748 mmHg 65%
    18:00 +13°C° 0 mm 2 mps 749 mmHg 69%
    19:00 +13°C° 0 mm 2 mps 749 mmHg 69%
    20:00 +13°C° 0 mm 2 mps 749 mmHg 69%
    21:00 +12°C° 0 mm 2 mps 749 mmHg 70%
    22:00 +12°C° 0 mm 2 mps 749 mmHg 69%
    23:00 +12°C° 0 mm 2 mps 749 mmHg 68%

    21 November, Wednesday

    Time Temperature Precipitation Wind Pressure Humidity
    00:00 +12°C° 0 mm 2 mps 749 mmHg 67%
    01:00 +12°C° 0 mm 2 mps 749 mmHg 67%
    02:00 +12°C° 0 mm 2 mps 749 mmHg 66%
    03:00 +10°C° 0 mm 2 mps 749 mmHg 65%
    04:00 +10°C° 0 mm 2 mps 748 mmHg 64%
    05:00 +10°C° 0 mm 2 mps 748 mmHg 63%
    06:00 +10°C° 0 mm 3 mps 748 mmHg 63%
    07:00 +12°C° 0 mm 2 mps 748 mmHg 61%
    08:00 +14°C° 0 mm 2 mps 748 mmHg 59%
    09:00 +15°C° 0 mm 2 mps 747 mmHg 57%
    10:00 +16°C° 0 mm 2 mps 747 mmHg 54%
    11:00 +18°C° 0 mm 2 mps 746 mmHg 51%
    12:00 +19°C° 0 mm 2 mps 745 mmHg 48%
    13:00 +19°C° 0 mm 2 mps 745 mmHg 49%
    14:00 +19°C° 0 mm 2 mps 744 mmHg 50%
    15:00 +19°C° 0 mm 2 mps 744 mmHg 52%
    16:00 +17°C° 0 mm 2 mps 744 mmHg 53%
    17:00 +16°C° 0 mm 2 mps 744 mmHg 54%
    18:00 +15°C° 0 mm 2 mps 744 mmHg 55%
    19:00 +15°C° 0 mm 2 mps 744 mmHg 54%
    20:00 +14°C° 0 mm 2 mps 744 mmHg 54%
    21:00 +14°C° 0 mm 2 mps 744 mmHg 53%
    22:00 +14°C° 0 mm 2 mps 744 mmHg 54%
    23:00 +14°C° 0 mm 2 mps 744 mmHg 56%
    Show more